Burlington, CO

10:41 PM MST on February 27, 2017 (GMT -0700)
Kit Carson County

Weather History for KITR - May, 2013

Change the Weather History Date:

Monday, May 6, 2013

  Actual Average Record
Temperature  
Mean Temperature 54 °F 55 °F  
Max Temperature 75 °F 69 °F 91 °F (1934)
Min Temperature 32 °F 41 °F 30 °F (1942)
Degree Days  
Heating Degree Days 12    
Growing Degree Days 4 (Base 50)    
Moisture  
Dew Point 30 °F    
Average Humidity 41    
Maximum Humidity 62    
Minimum Humidity 20    
Precipitation  
Precipitation 0.00 in 0.09 in 2.80 in (1969)
Month to date precipitation 0.04 0.51  
Year to date precipitation 3.44 3.66  
Sea Level Pressure  
Sea Level Pressure 29.98 in    
Wind  
Wind Speed 15 mph (South)    
Max Wind Speed 26 mph    
Max Gust Speed 34 mph    
Visibility 10 miles    
Events      
T = Trace of Precipitation, MM = Missing Value Source: NWS Daily Summary

Daily Weather History Graph

Daily Weather History Graph

Search for Another Location

Airport or City:

Trip Planner

Search our weather history database for the weather conditions in past years. The results will help you decide how hot, cold, wet, or windy it might be!

Date:

Astronomy

May. 06, 2013 Rise Set
Actual Time 5:44 AM MDT 7:47 PM MDT
Civil Twilight 5:15 AM MDT 8:17 PM MDT
Nautical Twilight 4:39 AM MDT 8:53 PM MDT
Astronomical Twilight 4:00 AM MDT 9:32 PM MDT
Moon 3:46 AM MDT (5/6) 4:50 PM MDT (5/6)
Length of Visible Light 15h 01m
Length of Day
14h 03m
Waning Crescent, 10% of the Moon is Illuminated
May 6
Waning Crescent
May 9
New
May 17
First Quarter
May 24
Full
May 31
Last Quarter

Hourly Weather History & Observations

Time (MDT) Temp. Windchill Dew Point Humidity Pressure Visibility Wind Dir Wind Speed Gust Speed Precip Events Conditions
12:53 AM 39.9 °F 32.9 °F 24.1 °F 53% 30.09 in 10.0 mi South 11.5 mph - N/A   Clear
1:53 AM 41.0 °F - 23.0 °F 49% 30.06 in 10.0 mi North - - N/A   Clear
2:53 AM 39.9 °F 33.4 °F 21.9 °F 49% 30.06 in 10.0 mi SSW 10.4 mph - N/A   Clear
3:53 AM 35.1 °F 30.1 °F 23.0 °F 61% 30.07 in 10.0 mi South 5.8 mph - N/A   Clear
4:53 AM 34.0 °F 28.0 °F 21.9 °F 61% 30.07 in 10.0 mi SSW 6.9 mph - N/A   Clear
5:53 AM 36.0 °F 29.0 °F 21.9 °F 57% 30.07 in 10.0 mi South 9.2 mph - N/A   Clear
6:53 AM 43.0 °F 37.2 °F 25.0 °F 49% 30.07 in 10.0 mi South 10.4 mph - N/A   Clear
7:53 AM 50.0 °F - 33.1 °F 52% 30.06 in 10.0 mi South 17.3 mph - N/A   Clear
8:53 AM 55.9 °F - 33.1 °F 42% 30.06 in 10.0 mi SSE 18.4 mph - N/A   Clear
9:53 AM 62.1 °F - 28.9 °F 29% 30.04 in 10.0 mi South 20.7 mph - N/A   Clear
10:53 AM 64.0 °F - 27.0 °F 25% 30.03 in 10.0 mi South 20.7 mph 28.8 mph N/A   Clear
11:53 AM 68.0 °F - 28.0 °F 22% 30.00 in 10.0 mi SE 26.5 mph 33.4 mph N/A   Clear
12:53 PM 70.0 °F - 30.0 °F 23% 29.97 in 10.0 mi SSE 21.9 mph 31.1 mph N/A   Clear
1:53 PM 73.9 °F - 32.0 °F 21% 29.93 in 10.0 mi SSE 25.3 mph 33.4 mph N/A   Clear
2:53 PM 73.0 °F - 30.0 °F 20% 29.90 in 10.0 mi SSE 23.0 mph 34.5 mph N/A   Scattered Clouds
3:53 PM 72.0 °F - 28.0 °F 20% 29.90 in 10.0 mi South 18.4 mph 29.9 mph N/A   Partly Cloudy
4:53 PM 71.1 °F - 28.0 °F 20% 29.89 in 10.0 mi SSE 21.9 mph 32.2 mph N/A   Clear
5:53 PM 70.0 °F - 30.9 °F 24% 29.90 in 10.0 mi South 24.2 mph 34.5 mph N/A   Clear
6:53 PM 63.0 °F - 37.0 °F 38% 29.91 in 10.0 mi SSW 24.2 mph 33.4 mph N/A   Clear
7:53 PM 59.0 °F - 37.9 °F 46% 29.91 in 10.0 mi South 16.1 mph - N/A   Clear
8:53 PM 55.9 °F - 39.0 °F 53% 29.91 in 10.0 mi South 13.8 mph - N/A   Clear
9:53 PM 54.0 °F - 39.0 °F 57% 29.91 in 10.0 mi South 15.0 mph - N/A   Clear
10:53 PM 53.1 °F - 39.9 °F 61% 29.90 in 10.0 mi South 13.8 mph - N/A   Clear
11:53 PM 55.0 °F - 42.1 °F 62% 29.88 in 10.0 mi South 23.0 mph 29.9 mph N/A   Clear